Regional Weather Roundup
Issued by NWS

Home | Current Version | Previous Version | Text Only | Print | Product List | Glossary Off
Versions: 1 2 3 4 5 6 7 8 9 10 11 12 13 14 15 16 17 18 19 20 21 22 23 24 25 26 27 28 29 30 31 32 33 34 35 36 37 38 39 40 41 42 43 44 45 46 47 48 49 50

000
ASUS43 KDMX 262307
RWRIA

WEATHER ROUNDUP FOR IOWA
NATIONAL WEATHER SERVICE DES MOINES IA
600 PM CDT THU MAR 26 2015

NOTE: "FAIR" INDICATES FEW OR NO CLOUDS BELOW 12,000 FEET WITH NO
SIGNIFICANT WEATHER AND/OR OBSTRUCTIONS TO VISIBILITY.

* - THESE STATIONS ARE NOT NWS STATIONS...THUS NOT UNDER NWS
QUALITY CONTROL.  THEY ALSO DO NOT REPORT WEATHER SUCH
AS PRECIPITATION OR FOG.

IAZ001>003-012>014-020>022-031>034-043>046-270000-
   NORTHWEST IOWA

CITY           SKY/WX    TMP DP  RH WIND       PRES   REMARKS
CARROLL *      PTSUNNY   39  27  60 N15       30.10R WCI  31
CHEROKEE *     CLOUDY    39  25  56 N13G20    30.13R WCI  32
DENISON *      MIX PCPN  37  28  70 NW14      30.11R WCI  29
LE MARS *      CLOUDY    39  27  60 N9G15     30.15R WCI  33
ORANGE CITY *  MOSUNNY   39  21  48 N13       30.13S WCI  32
SHELDON *      CLOUDY    37  23  56 N16G22    30.12S WCI  28
SIOUX CITY     CLOUDY    39  28  64 NW12      30.16R WCI  32
SPENCER        CLOUDY    37  22  54 N18G25    30.13R WCI  27
STORM LAKE *   PTSUNNY   37  25  60 N13G21    30.12R WCI  29
$$

IAZ055>058-069>071-079>083-090>094-270000-
   SOUTHWEST IOWA

CITY           SKY/WX    TMP DP  RH WIND       PRES   REMARKS
ATLANTIC *     PTSUNNY   43  23  45 N10       30.11R
AUDUBON *      SUNNY     39  23  52 NW7       30.11R WCI  34
CLARINDA *     CLOUDY    46  27  46 N10       30.10S
COUNCIL BLFS * MIX PCPN  37  32  81 N14G21    30.14R WCI  29
CRESTON *      SUNNY     43  25  49 N14       30.08S
HARLAN  *      PTSUNNY   41  27  56 N16       30.15R
LAMONI         PTSUNNY   47  24  40 N12       30.06S
RED OAK *      PTSUNNY   45  27  49 N14G21    30.11R
SHENANDOAH *   CLOUDY    45  28  53 NW10G20   30.11R
$$

IAZ047>049-059>061-072>074-084-270000-
   CENTRAL IOWA

CITY           SKY/WX    TMP DP  RH WIND       PRES   REMARKS
AMES           CLOUDY    39  24  55 N15       30.09S WCI  31
ANKENY *       MOSUNNY   43  27  52 N14G20    30.09R
CHARITON *     SUNNY     43  25  49 N13       30.07S
DES MOINES     CLOUDY    44  23  43 N14       30.09S
GRINNELL*      CLOUDY    41  25  52 NW16      30.08R
KNOXVILLE *    MOSUNNY   43  25  49 N13       30.07R
MARSHALLTOWN   PTSUNNY   39  23  52 N20       30.08R WCI  29
PELLA *        PTSUNNY   43  28  56 N10       30.09S
PERRY *        PTSUNNY   41  28  60 N14       30.09S
$$

IAZ004>006-015-016-023>025-035-036-270000-
   NORTH CENTRAL IOWA

CITY           SKY/WX    TMP DP  RH WIND       PRES   REMARKS
ALGONA *       CLOUDY    36  23  60 N14       30.12R WCI  27
CLARION *      CLOUDY    36  25  64 N16G22    30.10S WCI  26
ESTHERVILLE    CLOUDY    33  20  58 N18       30.13R WCI  22
FORT DODGE *   CLOUDY    37  21  52 N10       30.12R WCI  30
MASON CITY     CLOUDY    33  21  61 NW18      30.11R WCI  22
FOREST CITY *  CLOUDY    32  23  69 NW14G20   30.10S WCI  22
IOWA FALLS *   PTSUNNY   37  25  60 NW18      30.09S WCI  27
$$

IAZ007>011-017>019-026>030-037>042-050>054-066-270000-
   NORTHEAST IOWA

CITY           SKY/WX    TMP DP  RH WIND       PRES   REMARKS
CEDAR RAPIDS   SUNNY     40  23  50 N20       30.05R WCI  30
CHARLES CITY * CLOUDY    32  23  69 N15       30.10R WCI  22
CLINTON *      SUNNY     39  25  56 N17G23    30.06R WCI  30
DECORAH *      CLOUDY    32  19  59 NW10G17   30.06S WCI  24
DUBUQUE        CLOUDY    33  20  58 N17       30.04S WCI  22
MONTICELLO *   SUNNY     36  23  60 N16G23    30.06R WCI  26
OELWEIN *      SUNNY     34  21  60 N17G24    30.08S WCI  23
WATERLOO       MOSUNNY   36  22  56 N14G25    30.07R WCI  27
$$

IAZ064-065-067-068-078-270000-
   EAST CENTRAL IOWA

CITY           SKY/WX    TMP DP  RH WIND       PRES   REMARKS
DAVENPORT      SUNNY     40  22  48 NW18      30.04R WCI  31
IOWA CITY      SUNNY     42  21  43 NW17G26   30.06R
MT. PLEASANT * SUNNY     45  21  39 NW9G18    30.05R
MUSCATINE *    SUNNY     45  23  42 N14G24    30.05R
QUAD CITIES    SUNNY     41  22  46 NW21G26   30.03R
$$

IAZ062-063-075>077-085>089-095>099-270000-
   SOUTHEAST IOWA

CITY           SKY/WX    TMP DP  RH WIND       PRES   REMARKS
BURLINGTON     SUNNY     47  23  38 NW12G20   30.03R
FAIRFIELD *    SUNNY     45  23  42 NW17G24   30.05S
FORT MADISON * SUNNY     46  27  46 N13       30.04S
KEOKUK *       MOSUNNY   48  25  40 N10G17    30.03F
OSKALOOSA *      N/A     43  23  45 NW18      30.07S
CENTERVILLE *  MOSUNNY   45  25  45 NW13      30.08R
OTTUMWA        PTSUNNY   42  23  46 N17       30.06R
WASHINGTON *   SUNNY     45  21  39 N20       30.05R
$$

ABBREVIATIONS USED IN REMARKS
   TC - TEMPERATURES IN CELSIUS
  WCI - WIND CHILL INDEX
   HX - HEAT INDEX
  VSB - VISIBILITY
$$



USA.gov is the U.S. government's official web portal to all federal, state and local government web resources and services.